Date,TemperatureHighF,TemperatureAvgF,TemperatureLowF,DewpointHighF,DewpointAvgF,DewpointLowF,HumidityHigh,HumidityAvg,HumidityLow,PressureMaxIn,PressureMinIn,WindSpeedMaxMPH,WindSpeedAvgMPH,GustSpeedMaxMPH,PrecipitationSumIn
2013-1-1,29,21,7,27,19,2,96,89,80,0.00,40.00,8,6,25,0.00
2013-1-2,16,7,0,9,1,-8,80,75,72,0.00,40.00,8,6,27,0.00
2013-1-3,18,6,-4,9,-1,-10,78,72,65,0.00,40.00,6,4,13,0.00
2013-1-4,31,22,8,25,17,3,87,81,78,0.00,40.00,10,6,21,0.00
2013-1-5,35,26,13,26,12,0,81,58,34,0.00,40.00,9,5,23,0.00
2013-1-6,29,22,12,27,17,1,94,82,61,0.00,40.00,10,3,15,0.07
2013-1-7,21,16,11,19,6,-1,93,68,44,0.00,40.00,12,6,18,0.01
2013-1-8,41,33,20,31,24,11,82,71,54,0.00,40.00,17,8,38,0.00
2013-1-9,42,36,28,37,28,21,92,73,48,0.00,40.00,11,6,22,0.01
2013-1-10,43,36,27,31,23,16,83,61,41,0.00,40.00,9,6,26,0.01
2013-1-11,37,29,22,22,15,13,72,57,38,0.00,40.00,8,3,13,0.00
2013-1-12,40,37,31,38,30,22,92,76,66,0.00,40.00,8,4,15,0.00
2013-1-13,46,42,40,46,42,38,100,99,94,0.00,40.00,14,9,25,0.01
2013-1-14,49,44,34,49,41,21,100,91,58,0.00,40.00,15,8,27,0.01
2013-1-15,39,32,26,22,19,14,70,59,43,0.00,40.00,5,2,12,0.00
2013-1-16,35,30,26,34,25,10,99,82,47,0.00,40.00,10,5,19,0.35
2013-1-17,41,29,11,37,20,-12,99,71,27,0.00,40.00,10,6,18,0.08
2013-1-18,14,9,2,-4,-10,-15,53,40,26,0.00,40.00,8,5,19,0.00
2013-1-19,35,27,11,30,22,-4,97,82,49,0.00,40.00,15,6,29,0.18
2013-1-20,47,39,25,39,29,2,93,69,42,0.00,40.00,20,10,43,0.01
2013-1-21,22,17,11,7,-4,-8,66,39,27,0.00,40.00,9,5,29,0.00
2013-1-22,15,9,2,12,-4,-14,87,55,38,0.00,40.00,13,7,20,0.00
2013-1-23,7,1,-4,-14,-20,-23,45,36,24,0.00,40.00,9,6,22,0.00
2013-1-24,11,1,-6,-14,-18,-20,52,41,26,0.00,40.00,8,6,22,0.00
2013-1-25,19,9,-1,-3,-8,-15,59,46,32,0.00,40.00,8,5,21,0.00
2013-1-26,18,10,4,-6,-8,-11,52,43,28,0.00,40.00,7,4,16,0.00
2013-1-27,24,13,4,1,-4,-9,58,46,35,0.00,40.00,6,4,19,0.00
2013-1-28,24,17,7,17,-2,-10,84,46,22,0.00,40.00,5,4,12,0.00
2013-1-29,36,28,19,24,15,1,83,58,41,0.00,40.00,5,3,11,0.00
2013-1-30,52,43,33,52,42,26,100,96,74,0.00,40.00,22,15,45,0.16
2013-1-31,52,42,31,52,35,14,100,80,48,0.00,40.00,28,15,51,0.51
2013-2-1,30,24,11,13,3,-3,52,41,30,0.00,40.00,12,6,28,0.01
2013-2-2,24,16,6,16,2,-8,81,53,33,0.00,40.00,8,4,15,0.00
2013-2-3,28,21,18,20,16,13,92,82,70,0.00,40.00,11,8,18,0.03
2013-2-4,28,19,13,13,5,-11,82,57,32,0.00,40.00,10,6,24,0.01
2013-2-5,22,15,8,-5,-9,-12,44,33,25,0.00,40.00,10,5,24,0.00
2013-2-6,34,22,13,28,13,-5,93,68,37,0.00,40.00,9,5,17,0.07
2013-2-7,14,9,2,-5,-14,-20,48,34,22,0.00,40.00,11,5,15,0.03
2013-2-8,17,11,2,13,4,-16,87,73,39,0.00,40.00,28,15,44,0.00
2013-2-9,16,12,9,10,8,5,85,81,73,0.00,40.00,26,18,55,0.01
2013-2-10,35,19,12,7,4,-2,76,55,25,0.00,40.00,8,5,27,0.01
2013-2-11,41,34,19,41,27,-9,100,79,22,0.00,40.00,14,8,28,0.38
2013-2-12,40,36,32,39,32,27,100,86,64,0.00,40.00,7,5,16,0.08
2013-2-13,44,34,28,27,24,19,90,68,41,0.00,40.00,6,3,15,0.02
2013-2-14,40,33,28,24,17,12,71,54,35,0.00,40.00,7,4,17,0.00
2013-2-15,42,37,28,37,30,15,93,75,55,0.00,40.00,15,9,29,0.00
2013-2-16,39,33,26,37,31,23,99,92,74,0.00,40.00,6,4,13,0.12
2013-2-17,25,20,17,23,17,9,93,86,70,0.00,40.00,9,8,28,0.24
2013-2-18,29,20,13,9,2,-1,72,45,31,0.00,40.00,11,8,29,0.01
2013-2-19,44,29,18,39,13,-1,96,53,21,0.00,40.00,9,7,21,0.09
2013-2-20,42,36,27,41,29,15,99,78,53,0.00,40.00,19,8,49,0.81
2013-2-21,32,27,21,29,17,10,92,66,46,0.00,40.00,10,6,26,0.06
2013-2-22,39,31,25,24,19,15,75,61,40,0.00,40.00,11,7,21,0.00
2013-2-23,30,28,25,25,23,18,91,80,70,0.00,40.00,11,7,19,0.00
2013-2-24,31,28,25,27,25,21,96,87,76,0.00,40.00,17,10,27,0.02
2013-2-25,40,28,20,21,13,2,84,58,22,0.00,40.00,9,5,16,0.01
2013-2-26,42,33,28,23,17,1,69,51,28,0.00,40.00,7,4,12,0.00
2013-2-27,38,33,30,31,27,25,98,78,61,0.00,40.00,28,12,42,0.11
2013-2-28,39,35,32,38,35,32,100,99,98,0.00,40.00,24,16,41,1.03
2013-3-1,32,30,29,32,30,28,100,98,96,0.00,40.00,12,7,20,0.15
2013-3-2,37,32,28,34,31,27,99,96,87,0.00,40.00,5,3,14,0.12
2013-3-3,42,35,33,37,34,32,99,93,73,0.00,40.00,4,2,10,0.02
2013-3-4,34,32,30,32,31,29,99,96,91,0.00,40.00,7,4,13,0.31
2013-3-5,43,35,32,35,33,31,100,92,69,0.00,40.00,13,8,20,0.14
2013-3-6,36,32,31,32,27,22,98,83,69,0.00,40.00,20,15,34,0.00
2013-3-7,35,32,30,23,22,21,73,68,59,0.00,40.00,21,17,42,0.00
2013-3-8,45,35,29,23,21,18,76,60,34,0.00,40.00,19,16,34,0.00
2013-3-9,40,31,26,23,21,20,82,67,47,0.00,40.00,15,11,26,0.00
2013-3-10,36,30,26,27,24,21,87,77,59,0.00,40.00,8,5,15,0.00
2013-3-11,42,37,32,36,33,28,98,86,73,0.00,40.00,11,8,20,0.00
2013-3-12,49,44,38,46,41,38,99,92,76,0.00,40.00,17,12,32,0.38
2013-3-13,47,43,32,47,42,30,100,98,91,0.00,40.00,17,7,36,1.82
2013-3-14,44,33,25,30,25,16,97,76,41,0.00,40.00,9,3,17,0.02
2013-3-15,34,25,17,16,10,5,81,54,30,0.00,40.00,6,4,16,0.02
2013-3-16,34,28,20,17,9,4,67,46,30,0.00,40.00,6,3,18,0.00
2013-3-17,31,23,15,7,-1,-11,61,37,20,0.00,40.00,8,5,26,0.00
2013-3-18,34,22,10,0,-6,-11,45,30,19,0.00,40.00,7,4,19,0.00
2013-3-19,27,25,24,24,16,2,95,74,33,0.00,40.00,21,14,39,0.10
2013-3-20,31,25,17,28,22,14,95,87,77,0.00,40.00,19,8,31,0.16
2013-3-21,38,30,22,27,22,17,91,73,44,0.00,40.00,9,6,18,0.03
2013-3-22,44,32,22,27,17,12,91,58,30,0.00,40.00,7,4,17,0.00
2013-3-23,39,31,23,23,18,14,70,58,40,0.00,40.00,11,6,22,0.00
2013-3-24,45,37,29,25,22,20,73,56,39,0.00,40.00,6,4,14,0.00
2013-3-25,44,35,28,29,26,21,93,70,48,0.00,40.00,12,7,20,0.00
2013-3-26,47,37,27,28,23,19,77,58,34,0.00,40.00,13,7,23,0.00
2013-3-27,38,34,30,36,31,26,97,90,74,0.00,40.00,7,4,15,0.21
2013-3-28,48,43,37,31,29,27,76,60,48,0.00,40.00,5,3,16,0.01
2013-3-29,53,43,36,36,31,28,90,65,44,0.00,40.00,6,3,14,0.00
2013-3-30,54,42,35,31,24,11,75,53,18,0.00,40.00,7,4,21,0.00
2013-3-31,53,42,32,36,17,9,89,41,19,0.00,40.00,12,6,21,0.00
2013-4-1,44,40,34,43,38,32,99,92,75,0.00,40.00,23,9,38,1.24
2013-4-2,35,30,25,32,13,7,95,50,31,0.00,40.00,11,7,24,0.05
2013-4-3,41,32,26,14,11,7,56,42,29,0.00,40.00,11,8,26,0.00
2013-4-4,49,37,27,30,12,3,72,40,16,0.00,40.00,14,8,26,0.00
2013-4-5,49,41,37,32,30,23,78,64,45,0.00,40.00,15,10,29,0.00
2013-4-6,40,32,27,24,6,-4,66,36,16,0.00,40.00,9,5,24,0.00
2013-4-7,42,34,25,35,17,1,89,52,29,0.00,40.00,20,9,37,0.01
2013-4-8,58,48,40,40,35,31,94,64,37,0.00,40.00,20,8,35,0.01
2013-4-9,42,40,38,39,36,29,99,85,63,0.00,40.00,10,4,23,0.28
2013-4-10,56,43,38,44,41,38,100,91,62,0.00,40.00,6,4,13,0.06
2013-4-11,50,42,35,41,20,8,97,48,21,0.00,40.00,9,5,19,0.04
2013-4-12,38,32,29,31,21,10,98,65,37,0.00,40.00,15,8,26,0.21
2013-4-13,40,36,32,37,34,32,99,93,85,0.00,40.00,13,4,21,0.14
2013-4-14,48,39,35,40,37,33,98,92,66,0.00,40.00,5,3,10,0.11
2013-4-15,48,38,35,37,35,33,98,89,65,0.00,40.00,8,5,14,0.02
2013-4-16,49,41,34,44,38,33,98,89,62,0.00,40.00,19,12,40,0.15
2013-4-17,61,50,39,46,31,15,99,55,24,0.00,40.00,19,6,33,0.15
2013-4-18,49,41,33,34,21,11,80,48,30,0.00,40.00,15,7,28,0.00
2013-4-19,59,51,43,55,48,32,100,91,65,0.00,40.00,21,16,39,0.00
2013-4-20,55,50,43,55,46,28,100,88,60,0.00,40.00,22,10,46,0.34
2013-4-21,50,41,30,28,19,9,79,44,23,0.00,40.00,9,4,22,0.07
2013-4-22,46,38,31,32,23,13,85,55,39,0.00,40.00,12,7,19,0.00
2013-4-23,41,37,32,40,34,28,99,89,73,0.00,40.00,14,10,24,0.16
2013-4-24,51,45,40,51,45,40,100,100,99,0.00,40.00,16,11,26,1.22
2013-4-25,63,51,44,50,40,27,100,74,30,0.00,40.00,16,8,39,0.13
2013-4-26,57,46,37,33,29,24,67,52,38,0.00,40.00,14,6,22,0.04
2013-4-27,60,48,38,30,26,22,70,45,24,0.00,40.00,9,5,14,0.00
2013-4-28,62,52,42,37,33,28,64,48,37,0.00,40.00,9,5,13,0.00
2013-4-29,64,54,42,36,29,20,65,42,18,0.00,40.00,9,5,15,0.00
2013-4-30,67,55,43,36,27,20,74,36,20,0.00,40.00,7,5,14,0.00
2013-5-1,68,56,44,35,23,15,53,29,19,0.00,40.00,8,4,17,0.00
2013-5-2,59,50,42,41,32,15,77,52,25,0.00,40.00,13,8,22,0.00
2013-5-3,64,49,39,40,37,34,87,66,40,0.00,40.00,13,8,20,0.00
2013-5-4,56,46,36,37,34,29,94,65,42,0.00,40.00,12,7,19,0.00
2013-5-5,61,48,36,36,35,33,93,64,38,0.00,40.00,10,6,17,0.00
2013-5-6,62,49,39,43,39,34,97,69,48,0.00,40.00,11,7,18,0.00
2013-5-7,69,54,42,55,47,42,99,81,45,0.00,40.00,13,7,25,0.00
2013-5-8,71,61,52,58,54,52,99,81,53,0.00,40.00,9,6,17,0.00
2013-5-9,59,54,51,58,53,50,100,97,90,0.00,40.00,9,4,15,0.47
2013-5-10,68,58,49,58,54,49,100,88,69,0.00,40.00,8,4,13,0.01
2013-5-11,57,52,48,55,51,47,99,97,92,0.00,40.00,17,9,30,0.20
2013-5-12,57,54,51,57,54,45,100,100,100,0.00,40.00,12,6,24,0.40
2013-5-13,54,47,40,45,36,31,99,69,41,0.00,40.00,13,8,26,0.07
2013-5-14,54,47,41,38,32,28,83,56,39,0.00,40.00,7,3,15,0.00
2013-5-15,61,49,38,46,32,24,98,57,25,0.00,40.00,16,7,28,0.29
2013-5-16,70,50,45,54,28,-100,99,75,41,0.00,40.00,16,6,28,0.30
2013-5-17,59,51,45,43,32,-100,83,61,42,0.00,40.00,8,4,21,0.00
2013-5-18,58,48,41,41,37,33,85,66,45,0.00,40.00,10,6,17,0.00
2013-5-19,57,48,40,47,40,36,96,77,52,0.00,40.00,9,6,16,0.00
2013-5-20,55,50,47,54,50,46,100,98,92,0.00,40.00,17,6,35,0.73
2013-5-21,48,47,46,48,46,45,100,99,92,0.00,40.00,8,6,15,0.09
2013-5-22,49,47,46,49,47,46,100,100,99,0.00,40.00,14,8,23,0.41
2013-5-23,63,54,45,61,54,45,100,99,89,0.00,40.00,13,7,26,0.04
2013-5-24,60,57,49,60,57,49,100,100,100,0.00,40.00,20,11,41,2.13
2013-5-25,49,48,46,49,48,46,100,100,100,0.00,40.00,19,12,30,0.74
2013-5-26,48,46,42,47,45,40,100,97,90,0.00,40.00,10,6,19,0.53
2013-5-27,64,50,38,42,38,34,100,67,35,0.00,40.00,7,4,17,0.06
2013-5-28,71,58,46,40,34,27,64,42,27,0.00,40.00,10,6,19,0.00
2013-5-29,54,52,49,53,48,31,100,89,42,0.00,40.00,11,6,22,0.45
2013-5-30,81,65,50,64,58,50,100,79,49,0.00,40.00,6,4,15,0.04
2013-5-31,87,76,65,62,59,56,73,56,38,0.00,40.00,11,6,20,0.00
2013-6-1,91,78,67,65,61,59,77,57,38,0.00,40.00,11,6,22,0.00
2013-6-2,82,71,62,66,61,57,88,73,57,0.00,40.00,13,8,27,0.00
2013-6-3,67,62,58,64,59,57,98,91,73,0.00,40.00,12,7,21,0.06
2013-6-4,67,60,51,59,44,37,99,59,37,0.00,40.00,8,4,21,0.02
2013-6-5,70,57,46,44,40,37,78,56,30,0.00,40.00,8,4,19,0.00
2013-6-6,68,58,51,50,42,35,86,57,31,0.00,40.00,7,4,13,0.00
2013-6-7,60,54,50,51,46,39,97,76,48,0.00,40.00,14,6,21,0.29
2013-6-8,61,55,50,60,54,50,99,96,84,0.00,40.00,20,9,31,2.23
2013-6-9,66,56,49,56,52,48,97,85,66,0.00,40.00,7,4,14,0.01
2013-6-10,71,59,53,55,51,47,97,76,49,0.00,40.00,7,4,12,0.00
2013-6-11,55,52,49,52,51,49,100,96,80,0.00,40.00,20,11,36,1.16
2013-6-12,57,53,49,57,52,49,100,99,98,0.00,40.00,11,8,19,0.94
2013-6-13,70,58,50,53,50,48,99,79,50,0.00,40.00,7,4,23,0.27
2013-6-14,62,56,51,51,48,44,87,75,54,0.00,40.00,7,4,12,0.05
2013-6-15,77,62,50,49,44,39,97,56,26,0.00,40.00,6,4,17,0.00
2013-6-16,75,62,54,54,47,41,85,59,35,0.00,40.00,8,4,17,0.01
2013-6-17,78,63,55,60,57,54,99,82,48,0.00,40.00,9,5,17,0.39
2013-6-18,69,61,55,57,52,49,99,74,50,0.00,40.00,5,3,13,0.01
2013-6-19,74,64,52,50,44,37,80,52,29,0.00,40.00,10,4,18,0.01
2013-6-20,76,66,56,51,45,38,67,48,30,0.00,40.00,7,4,16,0.00
2013-6-22,76,68,63,62,59,57,83,73,58,0.00,40.00,4,3,11,0.00
2013-6-23,73,63,59,65,59,56,93,87,68,0.00,40.00,7,3,18,0.06
2013-6-24,87,73,63,70,65,62,98,79,51,0.00,40.00,7,4,18,0.08
2013-6-25,86,74,68,67,64,58,97,73,42,0.00,40.00,11,4,24,0.25
2013-6-26,73,64,56,69,62,54,98,96,87,0.00,40.00,11,6,19,0.30
2013-6-27,59,55,52,56,53,51,99,94,88,0.00,40.00,9,7,16,0.01
2013-6-28,62,58,53,62,58,53,100,100,99,0.00,40.00,20,12,33,1.34
2013-6-29,67,63,60,67,63,60,100,100,97,0.00,40.00,11,8,21,0.12
2013-6-30,71,65,61,67,64,61,100,98,86,0.00,40.00,10,8,21,0.02
2013-7-1,74,65,64,69,65,64,100,99,85,0.00,40.00,8,4,17,0.08
2013-7-2,67,59,55,67,59,55,100,99,96,0.00,40.00,16,10,25,0.46
2013-7-3,74,61,55,64,59,55,100,94,71,0.00,40.00,6,3,11,0.04
2013-7-4,87,74,66,70,68,65,99,82,54,0.00,40.00,7,4,13,0.00
2013-7-5,89,79,69,71,69,67,96,74,50,0.00,40.00,7,4,16,0.00
2013-7-6,88,77,70,71,69,64,93,77,54,0.00,40.00,5,2,13,0.00
2013-7-7,89,77,66,65,63,60,83,64,42,0.00,40.00,8,4,17,0.00
2013-7-8,74,68,60,65,61,50,90,77,58,0.00,40.00,8,4,13,0.08
2013-7-9,65,63,59,63,59,50,98,89,59,0.00,40.00,8,5,12,0.03
2013-7-10,66,60,59,65,55,-100,99,91,84,0.00,40.00,8,4,18,0.02
2013-7-11,76,70,65,71,67,65,100,92,77,0.00,40.00,8,4,21,0.12
2013-7-12,79,70,62,66,57,54,96,66,45,0.00,40.00,9,5,16,0.00
2013-7-13,80,68,63,58,55,53,76,64,45,0.00,40.00,6,4,14,0.00
2013-7-14,85,70,63,64,60,55,88,70,48,0.00,40.00,7,4,12,0.00
2013-7-15,92,78,69,68,65,60,87,67,35,0.00,40.00,5,3,13,0.00
2013-7-16,86,76,69,65,60,52,67,57,47,0.00,40.00,7,5,12,0.00
2013-7-17,79,71,66,63,58,54,77,65,55,0.00,40.00,14,9,28,0.16
2013-7-18,86,75,66,70,62,50,99,68,41,0.00,40.00,7,4,19,0.17
2013-7-19,83,73,67,71,67,64,97,82,62,0.00,40.00,12,7,22,0.03
2013-7-20,86,75,65,70,64,-100,97,75,51,0.00,40.00,10,6,22,0.31
2013-7-21,76,66,59,63,55,48,93,67,49,0.00,40.00,6,4,13,0.31
2013-7-22,74,65,58,60,52,47,92,66,44,0.00,40.00,5,3,11,0.00
2013-7-23,68,63,59,67,62,58,99,97,84,0.00,40.00,10,5,17,0.99
2013-7-24,81,69,61,69,64,50,100,85,67,0.00,40.00,7,4,13,0.06
2013-7-25,73,62,53,57,52,47,88,70,52,0.00,40.00,11,5,17,0.01
2013-7-26,67,63,61,67,63,59,100,99,93,0.00,40.00,10,7,17,1.83
2013-7-27,79,67,59,65,62,58,100,85,63,0.00,40.00,7,4,15,0.19
2013-7-28,70,64,61,65,62,59,98,92,75,0.00,40.00,8,5,14,0.35
2013-7-29,70,63,61,65,62,61,99,97,80,0.00,40.00,8,4,13,0.35
2013-7-30,77,67,61,66,62,56,99,85,49,0.00,40.00,6,3,12,0.00
2013-7-31,80,68,58,59,55,52,85,64,43,0.00,40.00,10,4,18,0.00
2013-8-1,75,65,61,61,58,54,95,79,58,0.00,40.00,8,5,16,0.00
2013-8-2,67,63,62,66,63,61,99,98,95,0.00,40.00,7,4,14,0.84
2013-8-3,73,65,59,65,61,58,99,87,67,0.00,40.00,9,3,17,0.06
2013-8-4,77,66,56,59,57,55,96,76,51,0.00,40.00,8,3,14,0.02
2013-8-5,72,61,53,55,52,47,95,74,52,0.00,40.00,6,2,15,0.00
2013-8-6,75,64,52,53,49,45,79,60,42,0.00,40.00,9,4,18,0.00
2013-8-7,75,63,58,58,50,46,95,65,38,0.00,40.00,7,5,13,0.00
2013-8-8,65,62,59,64,60,56,98,94,86,0.00,40.00,9,6,18,0.25
2013-8-9,68,66,64,68,66,63,99,99,97,0.00,40.00,15,9,32,2.16
2013-8-10,79,70,60,67,57,46,100,67,35,0.00,40.00,7,5,22,0.69
2013-8-11,76,64,53,53,51,48,87,64,41,0.00,40.00,7,4,17,0.00
2013-8-12,79,64,56,56,54,51,84,71,42,0.00,40.00,7,4,15,0.00
2013-8-13,73,64,60,65,58,-100,98,86,70,0.00,40.00,6,3,13,0.00
2013-8-14,71,63,57,64,58,-100,99,87,63,0.00,40.00,7,4,16,0.00
2013-8-15,75,58,49,53,38,-100,94,64,42,0.00,40.00,7,5,16,0.00
2013-8-16,76,62,58,56,48,-100,82,65,45,0.00,40.00,8,4,14,0.00
2013-8-17,75,65,56,58,53,49,92,66,44,0.00,40.00,5,3,13,0.00
2013-8-18,76,65,57,57,54,49,84,67,44,0.00,40.00,7,4,13,0.00
2013-8-21,85,72,65,64,59,56,80,65,47,0.00,40.00,9,5,17,0.00
2013-8-22,84,73,66,66,62,58,87,71,47,0.00,40.00,9,6,16,0.00
2013-8-23,73,67,57,66,56,48,96,71,42,0.00,40.00,8,5,17,0.01
2013-8-24,75,64,54,48,44,41,70,51,31,0.00,40.00,7,5,16,0.00
2013-8-25,78,66,59,52,48,45,64,52,36,0.00,40.00,7,4,15,0.00
2013-8-26,73,65,59,62,58,47,95,80,62,0.00,40.00,9,4,18,0.02
2013-8-27,80,71,64,65,63,62,94,78,60,0.00,40.00,5,3,11,0.02
2013-8-28,70,64,63,63,62,62,95,92,79,0.00,40.00,7,4,10,0.09
2013-8-29,65,60,55,62,56,52,96,88,72,0.00,40.00,15,9,25,0.05
2013-8-30,70,60,50,62,55,49,97,83,59,0.00,40.00,7,4,14,0.05
2013-8-31,77,67,63,66,64,61,98,90,70,0.00,40.00,6,3,18,0.23
2013-9-1,78,69,64,70,66,63,99,92,66,0.00,40.00,6,3,12,0.04
2013-9-2,66,62,59,65,62,59,100,99,96,0.00,40.00,18,9,28,1.88
2013-9-3,74,67,65,71,67,65,100,98,84,0.00,40.00,8,4,16,0.88
2013-9-4,77,67,62,66,60,54,100,81,49,0.00,40.00,7,4,15,0.09
2013-9-5,64,59,54,55,52,40,97,80,48,0.00,40.00,6,3,13,0.52
2013-9-6,65,56,45,47,41,35,84,59,38,0.00,40.00,8,5,16,0.01
2013-9-7,71,61,53,56,51,48,90,72,46,0.00,40.00,8,5,16,0.01
2013-9-17,63,50,39,45,39,32,82,66,45,0.00,40.00,8,4,20,0.01
2013-9-18,56,50,48,46,43,41,81,77,67,0.00,40.00,4,2,10,0.00
2013-9-19,76,62,50,52,48,43,83,62,41,0.00,40.00,6,4,12,0.00
2013-9-20,75,63,55,54,50,43,87,65,46,0.00,40.00,8,4,13,0.00
2013-9-21,66,58,54,59,57,52,100,94,76,0.00,40.00,13,7,28,0.00
2013-9-22,64,61,54,64,60,53,100,98,91,0.00,40.00,16,10,33,0.62
2013-9-23,58,50,43,51,43,40,97,78,56,0.00,40.00,6,4,19,0.06
2013-9-24,51,48,45,46,43,40,96,82,71,0.00,40.00,5,3,13,0.07
2013-9-25,58,51,47,47,45,44,92,81,65,0.00,40.00,8,4,16,0.01
2013-9-26,61,53,47,50,48,45,95,81,64,0.00,40.00,8,4,19,0.00
2013-9-27,70,59,51,52,50,49,97,75,49,0.00,40.00,11,4,18,0.00
2013-9-28,71,57,51,52,49,46,96,77,47,0.00,40.00,5,3,10,0.00
2013-9-29,68,55,48,49,46,44,98,76,47,0.00,40.00,6,3,12,0.00
2013-9-30,63,54,47,54,51,47,100,88,69,0.00,40.00,6,3,11,0.00
2013-10-3,73,62,54,49,46,39,74,57,38,0.00,40.00,8,4,18,0.00
2013-10-4,69,60,53,48,44,39,73,57,40,0.00,40.00,6,3,14,0.00
2013-10-5,62,54,47,46,42,38,84,65,43,0.00,40.00,7,4,12,0.00
2013-10-6,59,50,43,46,36,32,91,61,39,0.00,40.00,11,7,18,0.03
2013-10-7,62,56,46,62,54,45,100,95,87,0.00,40.00,17,11,36,0.12
2013-10-8,62,56,47,62,46,35,100,72,44,0.00,40.00,18,5,40,0.42
2013-10-9,61,50,44,41,38,34,85,65,43,0.00,40.00,7,3,12,0.00
2013-10-17,59,54,50,57,54,50,100,99,91,0.00,40.00,7,4,14,0.02
2013-10-18,62,54,49,58,52,45,100,92,69,0.00,40.00,10,4,20,0.25
2013-10-19,62,52,42,48,43,38,94,74,43,0.00,40.00,9,4,20,0.01
2013-10-20,63,54,44,56,43,30,100,71,36,0.00,40.00,8,5,18,0.01
2013-10-21,60,49,38,45,37,31,91,65,36,0.00,40.00,7,4,16,0.01
2013-10-22,56,53,47,53,50,43,99,89,81,0.00,40.00,12,8,22,0.01
2013-10-23,55,46,40,40,35,31,91,67,42,0.00,40.00,5,3,12,0.01
2013-10-24,49,43,35,37,29,23,85,59,38,0.00,40.00,9,5,24,0.00
2013-10-25,52,42,34,33,30,25,89,63,41,0.00,40.00,7,4,15,0.00
2013-10-26,49,40,30,41,32,24,97,74,42,0.00,40.00,10,5,27,0.07
2013-10-27,55,44,39,44,38,28,99,80,58,0.00,40.00,6,3,17,0.09
2013-10-28,53,41,32,39,29,-100,88,67,48,0.00,40.00,11,4,25,0.01
2013-10-29,47,36,28,27,22,15,84,58,30,0.00,40.00,5,3,12,0.00
2013-10-30,48,38,33,33,26,21,88,64,34,0.00,40.00,7,2,15,0.00
2013-10-31,56,45,34,56,39,25,100,80,58,0.00,40.00,16,8,35,0.40
2013-11-1,61,58,56,61,57,52,100,95,80,0.00,40.00,26,18,54,0.55
2013-11-2,63,53,47,52,45,40,94,77,49,0.00,40.00,11,4,25,0.01
2013-11-3,46,36,30,40,22,15,91,59,35,0.00,40.00,11,6,22,0.03
2013-11-4,40,32,26,20,16,14,63,51,37,0.00,40.00,8,5,19,0.00
2013-11-5,44,38,31,34,28,21,87,69,55,0.00,40.00,7,5,15,0.00
2013-11-6,51,46,36,48,41,33,93,84,76,0.00,40.00,19,9,33,0.00
2013-11-7,57,51,37,56,49,31,100,93,82,0.00,40.00,17,10,35,0.24
2013-11-8,44,37,30,31,26,23,86,65,48,0.00,40.00,6,4,15,0.02
2013-11-9,44,36,32,23,20,16,66,53,38,0.00,40.00,6,4,18,0.00
2013-11-10,45,39,33,44,35,20,100,86,58,0.00,40.00,9,4,25,0.10
2013-11-11,44,38,34,36,31,27,100,78,56,0.00,40.00,11,4,19,0.01
2013-11-12,44,33,24,38,21,12,79,60,51,0.00,40.00,11,5,25,0.00
2013-11-13,36,27,22,15,12,8,67,52,34,0.00,40.00,7,4,16,0.00
2013-11-14,47,36,24,30,24,15,84,64,42,0.00,40.00,8,5,17,0.00
2013-11-15,51,42,35,36,32,26,88,66,37,0.00,40.00,8,4,16,0.00
2013-11-16,49,44,41,43,38,28,98,80,57,0.00,40.00,7,5,11,0.00
2013-11-17,51,45,38,47,43,38,100,91,76,0.00,40.00,10,5,22,0.01
2013-11-18,57,52,46,56,50,41,100,94,80,0.00,40.00,23,11,46,1.01
2013-11-19,46,36,30,40,23,15,82,60,38,0.00,40.00,8,4,24,0.01
2013-11-20,38,31,26,15,7,1,52,37,23,0.00,40.00,7,4,23,0.00
2013-11-21,50,34,24,28,16,7,75,51,17,0.00,40.00,5,4,12,0.00
2013-11-22,42,36,32,28,25,15,82,66,34,0.00,40.00,6,2,12,0.00
2013-11-23,41,35,27,38,22,11,100,64,32,0.00,40.00,9,6,24,0.01
2013-11-24,27,21,18,15,5,0,62,48,38,0.00,40.00,8,6,25,0.00
2013-11-25,29,20,14,8,-1,-5,59,41,22,0.00,40.00,8,5,22,0.00
2013-11-26,37,32,25,34,28,12,97,82,57,0.00,40.00,11,5,22,0.03
2013-11-27,55,50,36,55,50,35,100,100,95,0.00,40.00,22,13,49,3.16
2013-11-28,42,30,18,42,21,3,100,72,40,0.00,40.00,10,7,25,0.06
2013-11-29,26,19,14,8,6,3,70,56,39,0.00,40.00,5,3,15,0.02
2013-11-30,31,21,12,24,11,5,85,67,36,0.00,40.00,9,4,14,0.00
2013-12-1,39,35,31,39,34,24,100,96,73,0.00,40.00,11,6,21,0.40
2013-12-2,42,39,34,42,39,34,100,100,98,0.00,40.00,17,10,27,0.41
2013-12-3,39,37,34,39,37,33,100,100,100,0.00,40.00,7,4,15,0.05
2013-12-12,16,12,5,11,-1,-11,85,56,33,0.00,40.00,6,3,47,0.00
2013-12-13,25,16,3,9,0,-12,78,51,30,0.00,40.00,10,6,28,0.00
2013-12-14,12,5,-4,-5,-15,-100,60,46,33,0.00,40.00,12,4,30,0.00
2013-12-15,28,17,8,28,14,-3,98,90,60,0.00,40.00,31,14,52,0.23
2013-12-16,24,14,2,21,11,-2,90,87,81,0.00,40.00,8,3,49,0.03
2013-12-17,16,6,-4,14,2,-9,91,82,76,0.00,40.00,11,5,22,0.02
2013-12-18,24,19,13,22,17,11,96,93,90,0.00,40.00,13,6,19,0.23
2013-12-19,31,25,13,30,24,11,99,96,90,0.00,40.00,6,4,14,0.01
2013-12-20,40,34,27,40,34,27,100,99,98,0.00,40.00,8,3,15,0.01
2013-12-21,42,33,28,42,33,28,100,100,98,0.00,40.00,10,6,14,0.12
2013-12-22,32,28,28,32,20,-100,100,92,100,0.00,40.00,10,5,15,0.40
2013-12-23,33,31,28,33,31,28,100,100,99,0.00,40.00,4,1,5,0.30
2013-12-24,32,22,9,32,21,6,100,95,87,0.00,40.00,0,0,0,0.09
2013-12-25,20,11,5,15,7,1,87,84,78,0.00,40.00,0,0,0,0.00
2013-12-26,33,24,10,33,23,7,100,94,86,0.00,40.00,0,0,0,0.21
2013-12-28,35,28,19,33,27,16,98,94,87,0.00,40.00,2,0,3,0.00
2013-12-29,40,34,29,35,32,28,100,95,82,0.00,40.00,11,4,17,0.63
2013-12-30,31,19,2,31,17,-4,100,91,77,0.00,40.00,10,4,15,0.26
2013-12-31,12,3,-2,2,-3,-8,82,75,60,0.00,40.00,8,3,11,0.00
2014-1-1,21,9,1,10,2,-7,85,73,59,0.00,40.00,9,4,21,0.00
2014-1-2,0,-6,-8,-7,-13,-17,75,70,65,0.00,40.00,21,13,33,0.00